Regional Weather Roundup
Issued by NWS

Home | Current Version | Previous Version | Text Only | Print | Product List | Glossary On
Versions: 1 2 3 4 5 6 7 8 9 10 11 12 13 14 15 16 17 18 19 20 21 22 23 24 25 26 27 28 29 30 31 32 33 34 35 36 37 38 39 40 41 42 43 44 45 46 47 48 49 50
000
ASUS43 KLSX 062007
RWRMO

WEATHER SUMMARY FOR MISSOURI
NATIONAL WEATHER SERVICE SPRINGFIELD MO
200 PM CST FRI MAR 06 2015

NOTE: "FAIR" INDICATES FEW OR NO CLOUDS BELOW 12,000 FEET WITH NO
       SIGNIFICANT WEATHER AND/OR OBSTRUCTIONS TO VISIBILITY.
       CURRENT SKY AND/OR WEATHER CONDITIONS ARE NOT AVAILABLE FOR
       CHILLICOTHE AND FARMINGTON.

MOZ001>031-035>038-043-044-053-054-062100-
...NORTHERN AND WESTERN MISSOURI...

CITY           SKY/WX    TMP DP  RH WIND       PRES   REMARKS
KANSAS CTY INT MOSUNNY   55  24  30 SW13      30.25F
KANSAS C DTWN  SUNNY     57  24  28 W10       30.26
LEE`S SUMMIT   SUNNY     54  26  34 SW16G22   30.27F
ST JOSEPH      SUNNY     57  24  28 SW10      30.23F
CHILLICOTHE      N/A     55  25  31 SW10G17   30.23F
KIRKSVILLE     SUNNY     52  24  33 W9G20     30.21

$$
MOZ066>068-077>081-088>096-101>105-062100-
...SOUTHWEST MISSOURI...

CITY           SKY/WX    TMP DP  RH WIND       PRES   REMARKS
SPRINGFIELD    SUNNY     49  27  42 SW17      30.36
JOPLIN         SUNNY     52  29  41 SW13G24   30.37

$$
MOZ032>034-039>042-045>050-055>058-069>072-062100-
...CENTRAL MISSOURI...

CITY           SKY/WX    TMP DP  RH WIND       PRES   REMARKS
COLUMBIA       SUNNY     53  28  38 SW13G25   30.26
JEFFERSON CITY SUNNY     53  24  32 SW17G24   30.28F
ROLLA          SUNNY     48  25  40 SW21      30.29
SEDALIA        SUNNY     51  30  44 SW17      30.28
WHITEMAN AFB   SUNNY     51  29  42 SW18G25   30.26F
WARRENSBURG    SUNNY     52  28  40 SW17G23   30.28F
OSAGE BEACH    SUNNY     52  27  37 SW18G25   30.30F

$$
MOZ051-052-059>065-062100-
...EAST CENTRAL MISSOURI...

CITY           SKY/WX    TMP DP  RH WIND       PRES   REMARKS
ST LOUIS INTL  MOSUNNY   47  19  33 S16       30.30F
SPIRIT OF STL  SUNNY     47  22  37 SW16G26   30.29
ST CHARLES     SUNNY     42  27  55 SW10      30.30

$$
MOZ072>076-082>087-097>100-106>115-062100-
...SOUTH CENTRAL AND SOUTHEAST MISSOURI...

CITY           SKY/WX    TMP DP  RH WIND       PRES   REMARKS
CAPE GIRARDEAU SUNNY     25  13  60 S15       30.49  WCI  13
FARMINGTON     SUNNY     37  19  48 SW15      30.39F WCI  28
POPLAR BLUFF   SUNNY     28  14  55 S8        30.49F WCI  20
WEST PLAINS    SUNNY     40  21  46 S10       30.41F

$$


USA.gov is the U.S. government's official web portal to all federal, state and local government web resources and services.